Shelbyville, IN

9:39 PM EDT on April 30, 2017 (GMT -0400)
Shelbyville Municipal

Weather History for KGEZ - December, 2012

Change the Weather History Date:

Sunday, December 30, 2012

  Actual Average Record
Temperature  
Mean Temperature 20 °F 29 °F  
Max Temperature 27 °F 36 °F 55 °F (2002)
Min Temperature 13 °F 21 °F 6 °F (2000)
Degree Days  
Heating Degree Days 45 36  
Month to date heating degree days 700 995  
Since 1 July heating degree days 1838 2070  
Cooling Degree Days 0 0  
Month to date cooling degree days 0 0  
Year to date cooling degree days 1417 913  
Moisture  
Dew Point 16 °F    
Average Humidity 80    
Maximum Humidity 92    
Minimum Humidity 68    
Precipitation  
Precipitation 0.00 in 0.11 in 0.23 in (2011)
Month to date precipitation 1.88 3.16  
Year to date precipitation 27.58 43.45  
Sea Level Pressure  
Sea Level Pressure 30.37 in    
Wind  
Wind Speed 9 mph (SSW)    
Max Wind Speed 17 mph    
Max Gust Speed 22 mph    
Visibility 8 miles    
Events      
T = Trace of Precipitation, MM = Missing Value Source: NWS Daily Summary

Daily Weather History Graph

Daily Weather History Graph

Search for Another Location

Airport or City:

Trip Planner

Search our weather history database for the weather conditions in past years. The results will help you decide how hot, cold, wet, or windy it might be!

Date:

Astronomy

Dec. 30, 2012 Rise Set
Actual Time 8:03 AM EST 5:28 PM EST
Civil Twilight 7:33 AM EST 5:58 PM EST
Nautical Twilight 6:59 AM EST 6:32 PM EST
Astronomical Twilight 6:26 AM EST 7:05 PM EST
Moon 7:58 PM EST (12/30) 9:12 AM EST (12/30)
Length of Visible Light 10h 25m
Length of Day
9h 25m
Waning Gibbous, 95% of the Moon is Illuminated
Dec 30
Waning Gibbous
Jan 4
Last Quarter
Jan 11
New
Jan 18
First Quarter
Jan 26
Full

Hourly Weather History & Observations

Time (EST) Temp. Windchill Dew Point Humidity Pressure Visibility Wind Dir Wind Speed Gust Speed Precip Events Conditions
1:53 AM 24.1 °F 14.4 °F 17.1 °F 75% 30.26 in 10.0 mi WNW 9.2 mph - N/A   Overcast
2:53 AM 24.1 °F 15.2 °F 18.0 °F 77% 30.29 in 10.0 mi West 8.1 mph - N/A   Overcast
3:53 AM 23.0 °F 12.4 °F 17.1 °F 78% 30.32 in 10.0 mi West 10.4 mph - N/A   Overcast
4:53 AM 21.9 °F 11.7 °F 16.0 °F 78% 30.34 in 10.0 mi West 9.2 mph - N/A   Overcast
5:13 AM 21.2 °F 10.9 °F 15.8 °F 80% 30.31 in 10.0 mi West 9.2 mph - N/A   Overcast
5:53 AM 21.9 °F 11.7 °F 15.1 °F 75% 30.37 in 10.0 mi West 9.2 mph - N/A   Overcast
6:53 AM 19.0 °F 9.0 °F 14.0 °F 81% 30.40 in 10.0 mi WSW 8.1 mph - N/A   Mostly Cloudy
7:53 AM 14.0 °F 5.1 °F 10.0 °F 84% 30.41 in 9.0 mi SW 5.8 mph - N/A   Scattered Clouds
8:53 AM 12.9 °F 2.6 °F 10.0 °F 88% 30.42 in 5.0 mi SW 6.9 mph - N/A   Clear
9:53 AM 16.0 °F 7.4 °F 12.0 °F 84% 30.43 in 6.0 mi SSW 5.8 mph - N/A   Clear
10:53 AM 19.0 °F 12.3 °F 12.9 °F 77% 30.45 in 6.0 mi South 4.6 mph - N/A   Haze
11:53 AM 19.9 °F 10.1 °F 15.1 °F 81% 30.45 in 6.0 mi SSW 8.1 mph - N/A   Haze
12:53 PM 21.9 °F 11.0 °F 16.0 °F 78% 30.42 in 7.0 mi South 10.4 mph - N/A   Clear
1:53 PM 24.1 °F 14.4 °F 17.1 °F 75% 30.41 in 7.0 mi South 9.2 mph - N/A   Clear
2:53 PM 26.1 °F 16.8 °F 18.0 °F 71% 30.37 in 8.0 mi South 9.2 mph - N/A   Clear
3:53 PM 27.0 °F 17.3 °F 18.0 °F 69% 30.37 in 8.0 mi South 10.4 mph - N/A   Clear
4:53 PM 26.1 °F 16.2 °F 17.1 °F 69% 30.37 in 9.0 mi South 10.4 mph - N/A   Clear
5:53 PM 26.1 °F 14.5 °F 17.1 °F 69% 30.38 in 10.0 mi South 13.8 mph - N/A   Clear
6:53 PM 26.1 °F 15.6 °F 17.1 °F 69% 30.39 in 10.0 mi South 11.5 mph - N/A   Clear
7:53 PM 24.1 °F 15.2 °F 16.0 °F 71% 30.39 in 10.0 mi South 8.1 mph - N/A   Clear
8:53 PM 26.1 °F 16.2 °F 19.0 °F 75% 30.36 in 10.0 mi South 10.4 mph - N/A   Clear
9:53 PM 21.9 °F 11.7 °F 16.0 °F 78% 30.36 in 8.0 mi South 9.2 mph - N/A   Clear
10:53 PM 24.1 °F 12.5 °F 19.0 °F 81% 30.33 in 7.0 mi South 12.7 mph - N/A   Clear
11:53 PM 25.0 °F 14.8 °F 19.9 °F 81% 30.31 in 8.0 mi South 10.4 mph - N/A   Clear